SCP
0 0 0 0 -0 0 0 0 0 0 0 0 0 0 0 0 0 0 0 0 0 0 0 0 0 0 0 0 0 0 0 0 0 0 0 0 0 0 0 0 0 0 0 0
0 0 0 0 0 0 0 0 0 0 0 0 0 0 0 0 0 0 0 0 0 0 0 0 0 0 0 0 0 0 0 0 0 0 0 0 0 0 0 0 0 0 0 0
0 0 0 0 0 0 0 0 0 0 0 0 0 0 0 0 0 0 0 0 0 0 0 0 0 0 0 0 0 0 0 0 0 0 0 0 0 0 0 0 0 0 0 0
0 0 0 0 0 0 0 0 0 0 0 0 0 0 0 0 0 0 0 0 0 0 0 0 0 0 0 0 0 0 0 0 0 0 0 0 0 0 0 0 0 0 0 0
0 0 0 0 0 0 0 0 0 0 0 0 0 0 0 0 0 0 0 0 0 0 0 0 0 0 0 0 0 0 0 0 0 0 0 0 0 0 0 0 0 0 -0 -0
0 0 0 0 0 0 0 0 0 0 0 0 0 0 0 0 0 0 0 0 0 0 0 0 0 0 0 0 0 0 0 0 0 0 0 0 0 0 0 0 0 0 -0 -0
0 0 0 0 0 0 0 0 0 0 0 0 0 0 0 0 0 0 0 0 0 0 0 0 0 0 0 0 0 0 0 0 0 0 0 0 0 0 0 0 0 0 -0 -0
0 0 0 0 0 0 0 0 0 0 0 0 0 0 0 0 0 0 0 0 0 0 0 0 0 -0 0 0 -0 -0 -0 0 0 0 0 0 0 0 0 0 0 0 -0 -0
0 0 0 0 0 0 0 0 0 0 0 0 0 0 0 0 0 0 0 0 0 0 0 0 0 -0 -0 -0 -0 -0 -0 -0 0 0 0 0 0 0 0 0 0 0 0 0
0 0 0 0 0 0 0 0 0 0 0 0 0 0 0 0 0 0 0 0 0 0 0 0 0 -0 -0 -0 -0 -0 -0 -0 0 0 0 0 0 0 0 0 0 0 0 0
0 0 0 0 0 0 0 0 0 0 0 0 0 0 0 0 0 0 0 0 0 0 0 0 -0 -0 -0 -0 -0 -0 -0 0 0 0 0 0 0 0 0 0 0 0 0 0
0 0 0 0 0 0 0 0 0 0 -0 0 0 0 0 0 0 0 0 0 0 0 -0 -0 -0 -0 -0 -0 0 0 0 0 0 0 0 0 0 0 0 0 0 0 0 0
0 0 0 0 0 0 0 0 0 0 0 0 0 0 0 0 0 0 0 0 0 -0 -0 -0 -0 -0 -0 -0 0 0 0 0 0 0 0 0 0 0 0 0 0 0 0 0
0 0 0 0 0 0 0 0 0 0 0 0 0 0 0 0 0 0 0 0 0 -0 -0 -0 -0 -0 -0 -0 0 0 0 0 0 0 0 0 0 0 0 0 0 0 0 0
0 0 0 0 0 0 0 0 0 0 0 0 0 0 0 0 0 0 0 0 0 -0 -0 -0 -0 -0 0 0 0 0 0 0 0 0 0 0 0 0 0 0 0 0 0 0
-0 -0 0 0 0 0 0 0 0 0 0 0 0 0 0 0 0 0 0 0 -0 -0 -0 -0 -0 0 0 0 0 0 0 0 0 0 0 0 0 0 0 0 0 0 0 0
0 0 0 0 0 0 0 0 0 0 0 -0 -0 -0 -0 -0 -0 0 0 0 -0 -0 0 0 0 0 0 0 0 0 0 0 0 0 0 0 0 0 0 0 0 0 0 0
0 0 0 0 -0 0 0 0 0 0 -0 -0 -0 -0 -0 -0 -0 0 0 0 -0 0 0 0 0 0 0 0 0 0 0 0 0 0 0 0 0 0 0 0 0 0 0 0
-0 0 0 0 0 0 0 0 0 0 -0 -0 -0 -0 -0 -0 -0 0 0 0 0 0 0 0 0 0 0 0 0 0 0 0 0 0 0 0 0 0 0 0 0 0 0 0
0 0 0 0 0 0 0 0 0 0 -0 -0 -0 -0 -0 0 0 0 0 0 0 0 0 0 0 0 0 0 0 0 0 0 0 0 0 0 0 0 0 0 0 0 0 0
0 0 0 0 0 0 0 0 0 0 -0 -0 0 0 0 0 0 0 0 0 0 0 0 0 0 0 0 0 0 0 0 0 0 0 0 0 0 0 0 0 0 0 0 0
0 0 0 0 0 0 0 0 0 0 0 0 0 0 0 0 0 0 0 0 0 0 0 0 0 0 0 0 0 0 0 0 0 0 0 0 0 0 0 0 0 0 0 0
0 0 0 0 0 0 0 0 0 0 0 0 0 0 0 0 0 0 0 0 0 0 0 0 0 0 0 0 0 0 0 0 0 0 0 0 0 0 0 0 0 0 0 0
0 0 0 0 0 0 0 0 0 0 0 0 0 0 0 -0 -0 0 0 0 0 0 0 0 0 0 0 0 0 0 0 0 0 0 0 0 0 0 0 0 0 0 0 0
0 0 0 0 0 0 0 0 0 0 0 0 0 -0 -0 -0 0 0 0 0 0 0 0 0 0 0 0 0 0 0 0 0 0 0 0 0 0 0 0 0 0 0 0 0
0 0 0 0 0 0 0 0 0 0 0 0 0 0 0 0 0 0 0 0 0 0 0 0 0 0 0 0 0 0 0 0 0 0 0 0 0 0 0 0 0 0 0 0
0 0 0 0 0 0 0 0 0 0 0 0 0 0 0 0 0 0 0 0 0 0 0 0 0 0 0 0 0 0 0 0 0 0 0 0 0 0 0 0 0 0 0 0
Wind_Speed
8 9 8 8 8 5 2 5 6 4 6 8 11 12 12 12 14 15 14 14 14 11 9 7 7 5 4 3 2 2 2 3 3 4 4 4 4 4 4 4 4 3 2 1
5 5 8 11 9 6 4 4 6 7 3 6 10 10 11 13 15 15 13 14 13 12 9 7 6 5 4 2 2 2 2 3 2 3 3 4 4 4 4 4 4 3 2 2
5 7 6 8 7 6 5 5 8 8 9 16 17 16 15 14 14 15 15 14 12 10 8 6 5 4 2 1 2 2 2 2 2 3 4 4 5 4 5 4 4 4 4 3
4 3 8 9 5 5 5 4 7 9 16 18 17 12 10 13 15 15 15 13 11 8 7 5 4 3 2 2 2 2 2 3 3 4 5 5 5 5 5 4 4 3 3 3
3 4 7 4 4 3 3 2 4 17 20 21 23 20 12 12 15 14 13 11 8 7 6 5 4 2 2 3 3 2 3 4 5 5 6 6 6 7 5 3 3 3 2 2
3 4 6 5 6 5 6 2 1 18 23 23 18 12 8 11 16 14 11 8 7 6 6 5 2 2 2 3 3 4 5 6 6 6 6 7 8 6 3 1 2 4 5 4
5 6 8 5 6 3 5 6 5 9 12 9 7 11 15 14 13 12 10 8 7 7 5 3 1 1 1 3 4 6 6 6 7 7 7 7 5 3 3 4 6 6 6 5
3 5 9 4 1 4 6 7 12 11 11 16 20 20 17 14 12 10 9 8 7 6 3 1 1 1 2 4 6 6 6 6 7 7 6 5 5 6 7 7 7 6 5 6
4 6 5 3 3 5 11 15 14 14 16 19 19 18 15 12 10 8 8 6 5 4 2 2 3 3 3 5 5 5 6 6 6 7 8 8 8 7 6 6 5 4 4 5
4 3 1 5 10 12 15 16 16 16 17 17 18 16 14 11 8 6 5 4 3 2 2 3 4 3 3 4 4 4 5 6 6 7 8 7 6 5 5 4 3 4 5 6
1 2 7 8 12 16 16 17 17 16 15 16 17 14 12 9 7 5 4 3 2 2 3 3 2 2 2 2 4 5 6 6 7 6 6 5 5 3 3 1 1 2 4 5
1 0 5 9 12 17 18 17 17 17 15 12 13 12 10 8 5 5 4 2 1 1 1 1 1 1 2 3 4 6 6 7 5 4 4 3 3 3 4 3 6 7 8 9
4 6 9 12 15 17 18 17 16 16 15 12 9 10 9 6 4 4 3 2 1 0 1 1 2 3 3 4 6 7 7 6 5 4 4 3 2 3 4 5 8 9 10 12
9 11 13 14 16 17 19 17 16 14 11 10 8 8 7 6 4 4 2 1 1 2 3 3 4 4 3 4 7 8 7 8 6 5 4 4 4 4 4 4 6 7 8 12
9 12 14 16 16 15 15 15 14 11 9 8 7 7 6 6 4 2 1 2 4 5 5 6 5 5 4 6 9 9 7 5 5 4 4 4 4 4 4 5 5 6 6 8
13 14 15 16 15 13 13 13 12 9 7 7 6 5 5 5 4 4 4 5 7 6 5 5 5 4 5 7 9 7 7 9 7 4 4 4 4 5 5 5 6 7 8 9
13 11 12 13 12 11 10 10 9 7 7 6 5 5 5 5 5 5 5 5 6 5 5 5 4 5 6 8 8 6 5 6 8 5 4 4 4 4 5 5 6 7 7 10
10 8 10 12 12 12 10 9 9 8 6 6 6 5 5 5 5 5 5 5 6 6 5 5 5 5 7 8 8 6 5 4 4 4 3 4 4 4 4 5 7 8 7 8
11 11 11 12 12 12 10 9 8 7 6 6 5 5 4 3 4 5 5 6 6 5 4 5 9 7 7 8 9 6 5 5 4 3 3 4 4 4 4 5 6 7 8 8
10 11 11 11 12 12 10 9 8 7 6 5 5 4 4 4 5 7 7 4 2 2 3 5 6 6 6 7 9 5 5 4 4 3 2 2 3 3 4 4 5 6 7 8
10 11 12 12 11 10 10 10 9 7 6 5 5 4 4 4 5 7 7 4 1 4 6 7 5 4 4 6 8 5 5 4 4 3 2 2 2 3 4 5 5 6 7 8
8 9 10 10 10 8 7 8 8 8 6 5 4 4 5 4 5 5 4 3 3 7 5 4 3 6 8 8 5 5 5 5 4 3 3 3 3 4 5 5 5 6 7 7
7 8 9 9 9 8 7 7 8 7 6 5 4 4 4 4 5 6 3 2 4 8 5 3 6 12 12 7 5 5 5 5 4 4 4 4 4 5 5 6 6 6 6 7
7 7 7 7 8 8 7 6 6 5 5 5 4 5 5 5 3 2 4 6 8 8 5 7 13 14 11 5 5 5 5 5 5 5 5 5 5 5 5 5 6 5 6 8
7 7 7 8 7 5 6 6 6 5 4 3 3 4 4 5 6 5 4 6 8 8 5 8 13 12 7 5 5 5 5 5 5 5 5 5 5 5 5 5 5 5 5 6
5 5 5 5 5 5 5 5 4 3 3 2 2 3 4 4 5 5 5 5 7 7 5 4 5 6 4 4 5 5 5 5 6 5 5 5 5 5 5 5 7 5 5 6
6 5 4 4 4 4 5 5 4 4 3 4 3 4 6 6 5 5 5 4 4 4 4 4 4 5 5 5 5 5 4 5 5 5 5 5 5 5 5 6 5 5 5 6
Wind_Direction
240 247 258 267 276 285 248 182 179 194 174 186 171 156 147 137 133 132 131 127 123 119 115 110 104 99 94 79 48 25 6 346 323 319 328 333 335 329 323 322 322 315 311 241
300 270 267 268 265 259 244 202 166 138 141 142 123 116 126 133 134 134 131 127 122 120 116 111 107 99 79 44 355 355 344 327 319 335 339 332 322 316 316 315 309 305 284 254
291 298 305 263 244 230 218 192 163 172 170 144 138 143 143 140 135 134 131 127 122 120 119 117 112 104 74 1 341 350 327 313 309 313 316 311 312 313 307 300 295 295 279 264
259 305 246 252 267 217 192 205 173 150 150 146 131 114 110 123 126 127 126 123 122 123 117 112 104 87 44 359 344 340 320 307 296 293 292 295 300 294 285 278 281 285 289 288
215 233 269 291 342 341 136 325 161 138 133 124 116 95 81 103 114 116 117 121 125 127 121 111 96 68 23 347 334 321 303 291 282 276 278 284 284 278 273 276 299 319 332 350
213 214 240 245 297 302 100 39 80 138 140 141 129 121 134 123 115 114 112 115 118 115 104 96 87 54 23 337 319 295 283 280 280 278 273 273 273 275 277 307 11 23 22 11
213 228 251 254 290 356 135 192 123 127 134 128 103 119 129 124 116 115 113 110 105 97 93 107 118 54 347 313 291 280 284 288 291 288 282 280 291 318 12 52 52 39 23 0
205 215 245 241 169 164 173 121 109 102 99 100 105 113 120 119 116 112 106 97 91 89 97 189 226 209 292 290 280 291 304 310 311 315 324 357 41 48 54 58 50 29 3 345
237 238 268 245 164 134 120 111 108 108 113 117 118 121 120 117 115 106 98 94 94 113 160 254 260 241 266 280 294 318 334 335 344 12 38 53 64 64 58 50 42 12 351 337
269 288 46 104 111 105 106 108 112 118 122 123 120 120 116 113 108 105 108 114 122 144 205 257 273 278 263 286 331 6 358 357 27 60 57 53 57 62 64 51 34 6 348 335
201 110 91 100 110 110 106 106 109 112 115 118 118 117 117 118 121 125 126 130 149 181 223 262 294 301 297 347 28 24 16 30 58 73 71 63 57 48 55 44 46 359 333 327
166 173 113 113 110 111 108 108 111 111 106 109 116 120 121 123 129 129 131 146 177 223 265 330 27 358 358 34 56 50 43 51 64 77 76 67 55 18 354 332 331 333 333 339
111 100 100 101 101 102 102 102 103 106 110 110 109 119 122 123 125 126 136 167 209 272 82 73 60 36 30 56 65 67 71 70 60 60 62 58 39 27 9 350 352 353 350 348
119 114 104 103 104 102 100 99 97 95 97 104 109 112 112 111 116 129 155 209 99 81 83 82 62 38 34 73 74 75 77 76 71 57 50 43 37 29 23 11 357 351 349 352
108 110 112 110 103 100 101 101 99 98 99 98 103 108 112 117 128 139 121 85 76 72 69 62 49 27 40 78 82 84 82 76 67 56 49 40 33 27 20 13 4 355 354 358
113 111 112 111 110 110 107 107 109 110 111 110 108 114 123 125 114 97 86 91 89 79 65 54 33 23 68 92 92 87 85 83 77 61 46 38 31 26 20 15 10 6 7 6
119 121 121 119 119 118 118 120 122 122 120 121 125 123 113 102 94 87 85 90 94 85 69 55 26 29 73 97 103 101 94 83 75 63 50 42 34 26 20 17 14 10 7 1
116 118 125 127 128 124 123 123 124 125 129 132 125 114 112 115 117 116 112 95 77 58 41 34 37 49 70 95 105 107 104 94 81 73 58 46 38 27 22 21 16 13 6 2
116 119 122 124 127 127 127 127 128 130 131 126 122 125 128 127 129 129 120 101 90 68 25 38 58 62 74 95 106 108 110 105 91 78 67 55 42 27 24 22 19 15 11 9
115 118 121 123 124 127 129 129 128 129 132 127 121 114 99 95 106 118 114 104 107 119 83 67 61 61 71 91 99 103 111 114 108 95 76 56 41 25 18 18 18 17 17 15
119 120 121 122 123 127 132 133 133 135 137 130 126 126 117 108 111 115 112 103 75 83 77 66 61 64 80 97 93 92 92 94 97 95 82 58 35 23 18 17 17 18 18 17
111 116 121 124 123 125 130 132 134 136 136 134 132 121 107 107 117 112 107 136 138 103 83 60 59 84 97 92 87 89 87 83 78 74 68 59 48 37 29 28 26 24 22 20
106 112 118 125 129 130 127 131 135 137 141 145 145 132 120 127 136 131 126 137 116 104 90 73 95 98 91 81 82 84 83 79 72 67 65 63 61 56 48 41 36 31 26 23
109 109 115 119 120 119 125 135 135 137 143 146 151 137 126 122 111 118 132 130 123 109 92 97 101 98 91 85 83 81 79 78 75 69 64 61 60 59 55 49 42 33 30 28
118 115 116 118 122 133 140 134 126 127 129 131 134 124 134 147 146 147 132 129 127 110 99 107 110 104 95 92 89 87 85 87 91 85 73 68 63 60 56 51 45 37 31 28
123 126 132 139 142 141 138 131 131 138 134 126 113 117 128 125 124 128 128 136 133 119 113 116 118 110 105 102 98 94 88 87 84 82 83 79 71 65 59 53 49 41 33 27
117 116 115 114 123 134 135 136 140 150 151 140 133 138 139 135 136 140 137 135 127 116 115 122 122 117 112 105 98 93 87 85 85 85 84 80 75 70 64 59 50 41 36 32